Temp_Advection
nan nan nan nan nan nan nan nan nan nan nan nan nan nan nan nan nan nan nan nan nan nan nan nan nan nan nan nan nan nan nan nan nan nan nan nan nan nan nan nan nan nan nan nan nan nan nan nan nan
nan 0 -0 -0 -0 0 -0 -0 -0 -0 -0 -1 -0 -0 0 -0 0 -0 -0 -0 -0 -0 0 0 0 0 -0 0 0 0 0 0 0 0 0 0 0 0 0 0 -0 -0 -0 -0 0 0 0 0 nan
nan 0 -0 -1 0 -0 -0 -0 -0 -1 -1 -0 -0 -0 -0 -0 -0 -0 -0 -0 -0 -0 -0 0 0 0 0 0 0 0 0 0 0 0 -0 0 0 0 0 0 0 -0 -0 -0 0 0 -0 0 nan
nan -0 -0 -0 -0 -0 -0 -0 0 -1 -3 -0 0 0 -0 -0 -0 -0 0 0 0 0 0 -0 0 0 0 0 0 0 0 0 0 0 0 0 0 0 0 0 0 0 0 0 0 0 0 0 nan
nan -0 -0 -0 -0 -0 -0 -0 0 0 -1 -1 0 0 -0 0 0 0 0 0 0 0 0 0 0 0 0 0 0 0 0 0 0 0 0 0 0 0 0 0 0 0 0 0 0 0 0 0 nan
nan -0 -0 -0 -0 -0 -0 -0 -0 0 -0 -1 -1 -0 -0 0 0 0 0 0 0 -0 0 0 0 0 0 0 0 0 0 0 0 0 0 0 0 0 0 0 0 0 0 0 0 0 0 0 nan
nan -0 -0 -0 -0 -0 0 -0 -0 0 -0 -0 -0 -0 0 0 0 0 -0 -0 -0 0 0 0 0 0 0 0 0 0 0 0 0 0 0 0 0 0 0 0 0 0 0 0 0 0 0 0 nan
nan -0 0 -0 -0 -0 0 -1 -0 0 -0 -1 -0 0 -0 -0 -0 -0 -0 -0 -0 0 0 0 0 0 0 0 0 0 0 0 0 0 0 0 0 0 0 0 0 0 0 0 0 0 0 0 nan
nan -0 0 -0 -0 -0 -0 -0 -0 -1 -0 -1 -0 0 0 0 0 0 -0 -0 0 0 0 0 0 0 0 0 0 0 0 0 0 0 0 0 0 0 0 0 0 0 0 0 0 0 0 0 nan
nan -0 -1 -0 -0 -0 -1 -0 -1 -0 -1 -1 -1 -1 -0 -0 -0 -0 -0 -0 0 0 0 0 0 0 0 0 0 0 0 0 0 0 0 0 0 0 0 0 0 0 0 0 0 0 0 0 nan
nan -0 -0 -0 -0 0 -0 -1 -1 -0 -0 -1 -1 -1 -1 -0 -0 -0 -0 -0 -0 0 0 0 1 1 0 0 0 -0 0 0 0 0 0 0 0 0 0 0 0 0 0 0 0 0 0 -0 nan
nan -0 -0 -0 -0 -0 -0 -1 -0 -1 -0 -1 -1 -1 -1 -1 -0 -0 -0 -0 0 0 0 1 1 1 0 0 0 -0 -0 0 0 0 0 0 0 0 0 0 0 0 -0 0 0 0 -0 0 nan
nan -0 -0 -1 -1 -1 0 0 -0 -1 -1 -0 -1 -1 -1 -1 -1 -1 -1 -0 0 0 0 1 1 0 0 0 0 0 0 0 0 0 0 0 -0 -0 0 0 0 0 0 0 0 0 0 0 nan
nan -0 -1 -0 -1 -0 -0 -1 -0 -0 -1 -1 -0 -1 -1 -1 -1 -1 -1 -1 1 1 1 2 1 0 0 0 0 0 0 -0 0 0 0 0 -0 0 0 -0 0 0 0 0 0 0 0 1 nan
nan -0 -0 -0 -0 -0 0 -0 -0 -1 -0 -1 -1 -1 -1 -1 -1 -1 -1 -0 1 1 2 2 1 0 0 1 0 -0 -0 -0 1 0 0 0 0 -0 -0 -0 -0 -0 -0 0 1 1 1 1 nan
nan -0 -0 -0 -0 -0 -0 0 -0 -0 -0 -1 -1 -1 -1 -1 -1 -2 -1 1 1 2 2 1 0 0 0 0 0 -0 -0 0 0 0 1 1 0 0 0 0 -0 -1 0 1 0 0 0 0 nan
nan 0 -0 -0 -0 -0 -0 -0 -0 -1 -0 -0 -1 -1 -1 -1 -1 -1 -0 2 2 2 1 1 1 0 0 -0 -0 -0 0 0 0 0 0 0 0 -0 -1 -0 -0 0 0 -0 1 0 -1 -0 nan
nan -0 -0 -0 -0 -0 -0 -2 -1 -1 -0 -0 -0 -1 -1 -1 0 1 2 2 2 2 2 1 1 0 0 0 0 0 0 0 0 0 0 0 0 0 0 0 -1 -1 -0 1 1 -1 -2 0 nan
nan 0 -0 -0 -0 -0 -0 -1 -1 -0 -0 -0 -1 -0 -0 1 1 2 1 1 0 1 1 1 0 0 0 0 0 -0 0 0 0 0 0 0 -0 0 0 0 0 -1 -0 1 0 -0 -1 2 nan
nan 0 -0 -0 -0 0 -0 -1 -1 -0 -0 -1 0 0 1 0 0 1 1 0 0 0 0 1 0 0 0 -0 -0 -0 -0 0 0 -0 0 0 -0 -0 -0 0 0 0 0 0 0 -0 -0 0 nan
nan -0 -0 -0 -0 0 0 -1 -0 -1 -0 -1 -1 -1 1 1 1 1 1 1 0 0 0 0 0 0 0 -0 -0 -0 -0 -0 -0 -0 0 0 -0 -0 -1 -1 -0 0 1 0 -0 -0 -0 -0 nan
nan -0 0 0 -0 -0 0 -0 -1 -1 -1 -2 -2 -3 -1 -1 -0 0 1 1 -0 -0 0 0 0 0 0 -0 -0 -0 -0 -0 -0 -1 -1 0 0 0 -0 -1 -1 -1 -0 0 0 0 0 -0 nan
nan 0 0 0 -0 -0 0 0 -0 -1 -1 -1 -1 -1 -1 -1 -0 -0 0 0 0 -0 -0 0 0 0 -0 -0 -1 -1 -0 -1 -1 -1 -1 -1 -0 -0 0 -0 -1 -1 -0 -1 -0 0 -0 -1 nan
nan -0 -0 -0 -0 -0 -0 -0 0 -0 -1 -1 -0 -2 -1 -1 -1 -1 -0 0 0 -0 0 -0 -0 -1 -1 -1 -1 -1 -1 -1 -1 -1 -1 -1 -1 -1 -0 -0 -0 -0 -1 -1 -1 -1 -0 0 nan
nan 0 0 0 0 -0 -0 0 -0 -0 -0 -1 -2 -2 -1 -1 -1 -0 -0 -1 -1 -1 -1 -1 -1 -1 -1 -1 -1 -1 -1 -1 -1 -1 -1 -1 -1 -1 -1 -0 -1 0 0 -1 -1 -1 0 -0 nan
nan 0 0 0 0 -0 -0 0 -0 -0 -0 -1 -1 -0 -0 -0 0 0 -0 -0 -1 -1 -1 -0 -1 -0 -0 -1 -1 -1 -1 -1 -1 -1 -1 -1 -1 -1 -1 -0 -0 -1 -0 0 -1 -1 -0 -1 nan
nan -0 0 -0 -0 0 -0 -0 -0 -0 -0 -0 -0 -0 0 0 -0 -0 -0 0 0 0 0 -0 -0 -0 -1 -1 -1 -1 -1 -1 -1 -1 -1 -1 -1 -1 -1 -0 0 0 -1 -1 -0 -1 -0 -0 nan
nan -0 -0 0 0 -0 -0 0 0 -0 -0 -0 -0 -0 -0 -0 -0 -0 -0 -1 -0 -1 -1 -1 -1 -1 -1 -1 -1 -1 -1 -1 -1 -1 -1 -1 -1 -1 -1 -1 -1 -0 -0 -0 -0 -1 -1 0 nan
nan -0 -0 -0 0 -0 0 0 -0 -0 -0 -0 -0 -0 -0 -0 -0 -0 -1 -1 -1 -1 -0 -1 -0 -0 -1 -1 -1 -0 -0 -1 -1 -1 -1 -1 -1 -1 -2 -1 -1 -1 -1 -1 -1 -1 -1 0 nan
nan nan nan nan nan nan nan nan nan nan nan nan nan nan nan nan nan nan nan nan nan nan nan nan nan nan nan nan nan nan nan nan nan nan nan nan nan nan nan nan nan nan nan nan nan nan nan nan nan
Wind_Speed
5 2 2 0 3 5 3 5 3 7 9 6 5 2 5 3 4 4 12 7 5 8 10 18 23 23 22 21 20 19 18 17 17 16 15 14 11 10 8 8 8 8 10 11 11 11 10 10 9
3 1 3 2 4 3 5 4 2 4 13 18 10 1 2 3 3 9 11 9 6 4 8 12 20 22 22 21 20 20 19 17 16 17 17 15 14 12 10 8 8 8 9 10 11 11 10 10 10
4 2 1 4 3 5 5 2 6 20 25 15 8 3 3 6 7 14 9 6 4 3 4 10 15 21 22 22 21 20 19 18 18 17 18 18 16 14 12 10 9 9 9 9 10 11 10 10 10
4 2 4 3 5 5 4 5 10 13 25 12 7 2 5 4 9 8 10 7 4 3 4 7 9 15 20 21 22 21 20 19 18 18 18 19 19 17 15 13 12 11 11 10 10 11 10 10 10
2 2 2 2 5 4 2 5 12 8 12 11 5 2 3 9 9 10 9 6 3 2 2 5 9 9 15 21 22 22 21 20 20 19 19 19 20 20 18 16 14 13 13 12 11 11 11 10 10
3 3 3 3 5 4 3 6 8 12 20 19 17 3 1 8 11 10 7 5 4 2 1 3 6 10 12 18 24 23 23 22 21 20 20 20 21 21 20 18 17 16 15 13 13 13 12 12 11
5 4 3 3 5 5 2 12 7 11 15 11 24 4 1 11 10 7 5 5 6 5 4 4 4 7 12 15 22 25 25 24 23 22 22 22 22 22 22 20 18 17 16 15 15 14 13 12 11
4 4 2 4 4 6 1 15 12 12 19 21 20 5 5 11 8 6 7 9 7 8 8 7 6 7 8 14 19 27 27 26 25 24 24 23 23 23 23 22 20 19 18 18 17 16 15 14 13
4 4 2 4 3 5 11 7 8 19 16 21 12 15 13 5 9 11 13 14 12 11 10 11 9 8 7 10 16 22 27 27 26 26 25 25 25 25 25 25 23 22 21 20 20 19 17 16 15
4 4 9 6 3 5 19 12 18 7 16 16 18 24 20 19 15 19 18 20 17 14 13 12 12 11 10 10 10 18 25 28 27 27 27 27 27 27 27 26 25 24 24 23 22 21 20 20 19
3 4 5 6 15 14 9 17 18 4 4 13 19 28 27 24 23 18 24 24 22 14 14 13 13 14 11 11 10 11 21 28 28 27 27 28 29 28 28 28 29 28 27 26 26 25 25 25 22
3 6 6 7 13 17 10 18 13 15 19 26 28 24 23 28 28 28 25 25 24 20 15 14 14 15 14 11 10 11 10 21 27 27 27 28 28 28 29 30 31 30 29 29 29 28 28 27 25
5 2 11 19 20 25 23 12 16 24 31 21 27 27 30 31 33 34 35 31 30 26 23 21 20 19 18 16 14 11 12 11 17 23 26 27 28 29 30 31 31 31 31 31 30 30 30 30 29
5 9 14 11 26 25 19 15 10 19 35 29 24 24 23 21 26 30 32 35 33 28 24 26 26 24 21 19 18 16 16 16 17 20 21 26 29 30 31 31 32 32 32 32 32 32 31 32 32
8 6 6 10 11 7 19 6 7 17 13 24 35 34 34 36 35 35 35 36 25 24 25 28 27 24 21 20 20 18 17 19 22 21 22 25 28 32 32 32 34 34 33 34 32 32 31 31 33
5 3 1 4 3 5 4 5 9 8 28 29 28 31 39 41 39 41 34 20 27 28 31 30 26 23 20 17 16 16 14 16 19 23 28 28 28 26 28 32 36 37 37 34 34 34 33 31 33
2 3 4 6 6 4 4 15 3 28 27 26 32 37 32 33 35 22 12 23 29 29 31 28 25 21 18 15 14 15 16 17 19 19 19 21 24 26 29 27 28 33 35 35 33 38 36 30 36
6 4 3 2 6 8 11 25 16 18 20 24 31 30 27 23 14 11 20 26 22 23 24 24 22 20 17 16 16 15 15 17 19 21 22 22 23 24 26 25 27 30 31 31 35 46 45 37 43
2 4 5 5 9 8 15 23 20 10 17 25 31 24 21 8 12 22 23 19 15 13 12 13 12 10 7 9 11 12 15 14 14 18 21 24 28 30 31 31 30 30 33 30 29 33 35 40 43
9 12 13 6 10 7 10 23 19 6 11 24 27 20 9 16 21 19 19 18 11 10 9 8 7 4 1 4 7 8 12 16 16 15 17 20 23 26 30 34 35 33 31 31 30 31 32 37 39
11 9 10 14 2 5 5 13 7 14 10 17 21 24 15 21 23 18 16 15 10 7 8 8 7 5 3 4 7 9 10 13 17 17 17 18 21 24 28 30 34 38 37 35 32 29 30 35 36
9 7 6 4 5 2 3 8 15 9 11 14 19 27 23 21 19 16 17 16 15 15 11 9 9 8 7 6 8 11 13 16 16 18 20 21 21 21 22 26 29 33 37 38 37 34 34 33 35
9 5 3 1 1 2 5 2 6 10 10 10 12 22 25 23 18 18 18 17 16 15 13 12 12 10 8 8 10 13 14 15 18 20 21 21 22 20 20 21 23 27 30 34 37 37 36 37 40
6 3 3 4 3 2 6 7 3 7 8 12 10 19 21 23 19 18 18 16 17 14 16 14 14 14 12 12 12 12 15 17 18 20 22 23 23 23 19 20 20 20 23 27 31 34 38 38 40
3 4 2 3 1 5 1 2 3 6 10 19 17 21 22 21 24 23 25 26 20 16 20 19 20 18 18 17 16 15 16 17 18 19 22 23 24 24 23 22 22 22 22 25 27 30 37 35 38
7 7 4 5 3 3 4 4 2 4 11 19 19 18 18 19 18 21 22 24 22 20 18 19 20 19 18 18 18 17 17 16 17 18 20 22 23 24 24 25 25 25 25 27 29 29 34 37 36
4 4 2 3 2 1 4 4 5 5 5 8 10 12 16 14 15 18 19 22 23 24 25 22 20 19 20 20 19 18 18 18 18 17 17 19 21 22 23 25 27 28 27 27 27 27 27 31 36
6 8 3 1 3 5 4 4 5 7 4 4 4 6 8 10 10 12 14 15 17 20 19 19 19 21 19 19 18 18 17 17 18 18 18 19 21 22 22 24 26 27 27 26 25 26 27 27 34
3 3 1 4 4 4 2 4 5 9 9 9 7 7 6 7 9 9 11 13 15 15 16 18 18 20 20 20 20 20 20 20 20 20 20 20 20 21 23 23 25 27 27 26 26 25 27 25 33
11 10 7 5 5 3 3 5 7 10 11 12 10 10 8 6 8 10 12 11 11 14 17 17 17 18 19 19 20 21 20 20 21 22 21 21 20 20 21 22 23 23 26 26 25 24 24 24 27
Wind_Direction
3 79 360 344 53 64 283 264 267 326 339 328 323 55 132 103 166 209 146 142 129 157 173 189 188 186 189 186 182 178 181 184 182 184 185 183 177 171 162 158 157 158 165 169 172 181 185 191 198
21 14 338 93 91 69 271 259 241 288 308 313 303 70 10 74 128 150 153 153 141 138 172 188 196 195 195 195 192 187 185 189 190 188 190 190 188 185 182 172 170 168 170 173 177 183 190 198 208
44 13 31 83 102 176 221 235 300 324 331 312 301 33 107 143 158 157 156 163 163 163 158 186 199 203 203 201 201 198 194 193 195 195 194 194 195 194 192 187 181 180 181 183 186 187 192 200 210
36 64 57 99 228 252 221 326 338 321 324 315 245 155 114 167 188 191 171 187 209 266 223 185 189 209 216 212 207 207 205 203 201 200 198 198 198 199 200 198 194 190 188 192 197 197 197 202 209
58 73 55 336 264 263 308 303 324 321 311 264 251 229 118 182 194 197 188 198 243 243 199 221 206 203 218 225 224 216 213 213 210 206 204 203 204 203 204 205 204 201 196 197 201 206 204 203 205
74 80 59 268 273 279 299 307 1 3 354 346 349 5 339 171 180 180 185 213 219 273 282 259 236 228 230 227 227 226 223 219 217 213 211 210 209 209 208 209 210 208 206 204 206 208 210 210 209
116 86 195 241 270 311 144 19 20 351 345 341 343 343 203 185 185 191 200 218 244 264 281 293 290 257 242 236 229 229 229 228 223 219 216 214 214 213 214 214 216 216 214 213 213 214 214 214 215
113 92 169 236 238 281 191 352 336 0 314 326 340 26 321 212 193 221 255 271 260 259 275 277 274 269 268 249 238 229 230 232 230 224 221 218 216 215 217 219 220 222 220 220 220 221 220 220 220
151 72 200 252 218 252 311 337 302 316 282 319 316 324 345 277 233 229 245 259 248 236 242 258 258 264 255 258 249 238 232 231 231 228 223 220 219 218 218 221 223 226 227 226 226 226 226 227 228
136 137 209 218 240 276 305 309 317 317 309 304 313 316 319 315 310 262 251 265 256 235 232 238 253 259 254 250 266 253 241 234 231 229 226 222 222 222 222 225 227 229 233 233 231 231 230 231 232
187 203 218 255 287 304 304 311 312 294 287 297 306 313 312 312 306 293 269 259 267 249 222 238 234 238 249 252 271 266 251 237 233 230 230 229 227 225 226 228 229 229 231 234 232 230 231 233 234
311 268 299 295 319 316 307 306 297 274 267 290 297 302 292 300 303 301 292 269 255 250 249 233 219 219 228 235 261 270 269 243 235 233 233 233 234 232 233 234 234 234 234 238 239 237 237 238 239
204 283 321 316 313 307 302 276 282 278 296 304 305 304 301 304 302 299 288 279 255 239 233 226 210 210 220 227 240 255 252 246 242 246 246 245 243 241 241 241 242 241 240 240 242 243 243 242 242
304 326 316 312 304 301 289 287 297 281 297 309 326 338 339 334 331 318 304 279 255 241 226 210 207 209 217 225 227 240 245 244 239 238 245 250 251 249 249 250 249 248 245 245 246 246 247 247 247
328 325 319 272 287 274 310 310 222 303 346 339 331 331 328 323 322 318 315 291 231 217 206 201 203 213 218 224 224 226 227 237 248 248 241 245 251 250 252 254 254 255 253 250 248 248 248 248 250
355 31 345 291 304 285 360 236 323 309 341 325 320 320 319 320 323 318 316 241 199 199 183 187 191 195 202 206 215 229 239 245 254 255 250 248 247 243 254 255 255 254 254 254 254 254 249 250 251
332 231 206 311 294 312 346 293 301 321 326 308 307 309 313 315 318 309 275 204 183 176 177 178 179 189 198 210 223 237 245 250 256 262 267 270 271 269 255 244 257 255 259 255 247 256 249 255 257
215 186 208 219 295 321 279 277 288 310 299 294 292 297 303 304 288 226 179 166 162 167 171 175 181 193 206 224 246 257 253 250 249 255 260 262 264 269 273 269 265 251 256 256 237 245 255 247 261
301 255 224 236 257 284 266 276 291 315 300 288 289 297 300 261 170 156 150 144 142 138 146 155 173 185 198 216 224 244 263 266 264 261 264 265 266 262 263 266 267 269 264 258 253 255 258 249 247
268 282 284 256 251 235 278 283 297 324 277 283 286 283 234 157 152 139 137 134 127 125 116 124 134 138 78 354 339 303 285 292 296 286 279 277 275 273 267 263 263 263 264 265 263 261 260 258 255
243 254 275 276 261 247 317 290 333 333 334 322 297 295 261 181 151 134 117 112 102 95 92 86 93 89 51 354 331 325 310 296 292 291 291 287 283 281 278 272 266 262 262 262 260 258 263 263 263
252 232 248 274 28 284 68 292 332 344 27 9 19 38 80 95 105 107 103 93 87 55 56 65 70 70 58 20 342 335 328 318 313 308 304 301 303 295 287 281 276 270 265 261 259 256 255 258 260
258 175 214 237 103 341 196 210 285 5 360 10 51 61 63 78 83 81 76 67 64 61 34 52 47 54 44 17 354 334 329 322 315 312 308 306 310 309 303 297 286 279 273 269 262 256 254 253 254
135 109 49 35 83 298 222 179 314 12 340 338 72 66 77 72 58 45 42 47 45 34 25 41 36 35 27 19 360 345 334 327 321 315 313 314 316 319 312 308 305 296 285 279 270 262 251 252 252
118 138 271 293 251 238 262 160 56 21 17 43 53 51 46 50 61 39 27 22 25 23 13 20 26 24 22 15 3 353 344 335 330 325 323 321 318 318 322 316 310 308 303 297 287 269 255 249 252
184 167 191 232 212 276 324 253 101 82 83 86 81 74 55 40 38 40 24 12 9 10 16 23 22 18 16 12 5 360 353 347 340 337 333 328 322 317 319 319 320 312 306 299 295 284 265 251 248
191 186 207 96 169 44 214 117 142 137 112 92 97 99 96 70 31 28 18 1 359 3 9 16 14 15 15 9 4 360 356 350 346 342 340 336 329 320 316 317 314 314 310 302 293 287 280 263 243
178 158 91 99 209 228 241 196 182 177 172 130 115 96 93 80 52 26 12 355 347 358 359 9 9 16 15 10 6 2 358 357 352 346 340 337 331 328 319 313 310 306 305 307 295 287 285 278 240
150 189 163 134 172 197 261 246 185 164 178 175 163 127 98 69 67 33 11 356 356 357 4 14 16 17 15 13 12 9 8 2 358 354 351 345 337 331 330 323 316 316 312 307 299 291 284 277 247
202 186 168 145 203 218 148 263 156 168 181 171 155 128 111 73 39 25 15 10 2 356 12 16 19 17 16 18 19 19 18 13 11 7 2 357 350 348 341 333 322 316 314 312 305 292 280 271 262
Height
1501 1502 1502 1501 1513 1518 1522 1509 1496 1492 1486 1480 1477 1477 1479 1480 1483 1496 1481 1482 1483 1484 1485 1486 1488 1489 1492 1494 1495 1496 1498 1500 1501 1503 1506 1506 1507 1509 1510 1512 1514 1515 1517 1518 1519 1520 1521 1523 1525
1502 1502 1503 1501 1519 1531 1521 1500 1495 1490 1485 1481 1479 1477 1478 1481 1479 1479 1481 1482 1483 1484 1485 1486 1487 1488 1490 1494 1495 1496 1497 1499 1501 1502 1505 1506 1508 1510 1511 1512 1514 1515 1517 1518 1519 1520 1522 1523 1525
1503 1503 1503 1510 1526 1526 1519 1497 1495 1484 1481 1482 1482 1479 1479 1480 1480 1480 1481 1482 1482 1484 1485 1486 1487 1488 1490 1491 1494 1496 1497 1499 1500 1501 1503 1505 1507 1509 1511 1513 1514 1515 1517 1518 1519 1520 1522 1523 1524
1503 1505 1507 1514 1517 1510 1504 1497 1493 1487 1480 1477 1480 1479 1480 1479 1479 1480 1481 1481 1483 1483 1484 1485 1486 1488 1490 1492 1492 1494 1496 1498 1499 1500 1501 1503 1505 1507 1509 1512 1513 1515 1516 1518 1519 1520 1521 1522 1524
1503 1504 1513 1517 1513 1505 1500 1497 1496 1492 1486 1477 1478 1478 1478 1478 1479 1479 1481 1481 1482 1482 1483 1484 1485 1487 1489 1491 1493 1493 1495 1496 1498 1499 1500 1501 1503 1505 1507 1510 1512 1514 1515 1516 1518 1519 1520 1521 1523
1504 1507 1523 1525 1513 1503 1500 1497 1494 1493 1489 1482 1481 1480 1480 1479 1479 1480 1481 1482 1482 1482 1483 1483 1484 1486 1488 1489 1490 1492 1494 1495 1496 1498 1499 1500 1501 1504 1506 1508 1511 1513 1514 1515 1516 1518 1519 1521 1521
1505 1512 1522 1519 1513 1504 1498 1496 1496 1493 1492 1487 1485 1483 1482 1480 1480 1481 1482 1483 1482 1481 1482 1482 1483 1484 1485 1487 1488 1490 1491 1493 1494 1495 1497 1498 1500 1502 1505 1507 1509 1511 1513 1514 1515 1517 1518 1519 1520
1504 1509 1516 1515 1513 1507 1495 1496 1497 1494 1488 1487 1488 1488 1487 1483 1482 1481 1481 1482 1481 1482 1482 1481 1481 1482 1482 1484 1485 1486 1488 1490 1492 1493 1494 1496 1497 1499 1502 1504 1506 1509 1510 1512 1513 1515 1516 1517 1518
1504 1516 1523 1513 1508 1498 1494 1496 1495 1492 1489 1489 1487 1488 1488 1484 1485 1483 1481 1479 1478 1479 1479 1479 1480 1480 1480 1482 1483 1484 1485 1487 1489 1490 1492 1493 1494 1496 1497 1500 1503 1505 1507 1509 1511 1513 1515 1515 1516
1502 1515 1513 1501 1498 1496 1492 1495 1493 1489 1489 1485 1483 1482 1485 1486 1485 1483 1480 1477 1476 1475 1475 1475 1477 1478 1479 1479 1480 1481 1483 1484 1486 1487 1489 1490 1491 1492 1494 1497 1500 1502 1505 1507 1510 1511 1513 1513 1514
1502 1506 1500 1496 1495 1494 1493 1491 1490 1489 1486 1485 1483 1481 1480 1481 1481 1480 1479 1476 1473 1471 1471 1470 1471 1473 1476 1477 1478 1478 1478 1480 1483 1485 1487 1488 1488 1490 1491 1492 1495 1497 1500 1503 1505 1506 1508 1509 1511
1504 1500 1498 1496 1494 1492 1491 1488 1485 1484 1481 1481 1482 1482 1480 1477 1477 1477 1475 1474 1471 1468 1469 1469 1468 1469 1470 1473 1475 1475 1475 1476 1480 1481 1484 1485 1486 1487 1488 1488 1490 1493 1495 1498 1501 1503 1504 1505 1507
1500 1499 1498 1495 1491 1489 1487 1485 1482 1475 1474 1477 1478 1478 1477 1475 1474 1472 1470 1468 1467 1464 1464 1464 1464 1466 1468 1469 1471 1472 1473 1474 1476 1480 1482 1483 1483 1484 1485 1485 1487 1488 1491 1493 1496 1498 1500 1501 1502
1497 1496 1495 1493 1489 1485 1481 1479 1479 1473 1473 1472 1473 1472 1473 1472 1470 1466 1464 1462 1460 1459 1458 1459 1460 1461 1463 1465 1465 1468 1470 1471 1473 1475 1478 1480 1481 1480 1481 1482 1483 1484 1486 1488 1490 1492 1494 1496 1499
1495 1497 1494 1489 1486 1484 1478 1478 1472 1472 1472 1471 1469 1468 1468 1467 1465 1461 1459 1456 1453 1454 1454 1455 1457 1459 1461 1462 1464 1464 1466 1468 1470 1470 1470 1473 1476 1476 1476 1478 1477 1479 1480 1481 1484 1487 1488 1490 1492
1497 1498 1502 1488 1485 1481 1482 1476 1468 1471 1470 1469 1469 1468 1465 1461 1459 1453 1451 1450 1448 1449 1450 1451 1453 1455 1457 1459 1462 1462 1462 1464 1465 1466 1467 1467 1469 1468 1469 1470 1471 1471 1472 1476 1479 1482 1480 1482 1485
1502 1508 1503 1495 1484 1483 1484 1468 1468 1469 1471 1469 1465 1463 1463 1457 1454 1448 1448 1450 1448 1447 1445 1446 1448 1451 1454 1457 1458 1460 1460 1460 1461 1462 1462 1462 1462 1464 1463 1463 1463 1465 1465 1469 1468 1476 1477 1472 1477
1503 1506 1504 1499 1490 1485 1485 1466 1466 1471 1468 1467 1460 1460 1457 1452 1448 1446 1444 1447 1452 1449 1446 1444 1445 1448 1449 1451 1454 1455 1456 1456 1456 1457 1458 1458 1458 1458 1459 1459 1457 1457 1459 1461 1459 1472 1469 1464 1474
1492 1494 1500 1498 1491 1487 1479 1465 1459 1469 1466 1461 1454 1455 1452 1450 1447 1445 1445 1448 1450 1452 1449 1444 1443 1445 1447 1449 1449 1450 1451 1452 1452 1452 1452 1451 1452 1452 1453 1453 1453 1453 1452 1454 1458 1458 1459 1460 1455
1494 1494 1493 1492 1486 1486 1479 1461 1459 1464 1460 1455 1448 1450 1450 1449 1450 1449 1449 1447 1454 1452 1448 1445 1441 1442 1443 1442 1443 1445 1447 1447 1445 1446 1446 1445 1445 1445 1445 1445 1447 1447 1447 1446 1447 1449 1451 1453 1458
1491 1493 1491 1488 1487 1482 1481 1465 1455 1458 1455 1450 1448 1448 1449 1449 1449 1451 1451 1448 1453 1453 1449 1445 1441 1439 1438 1438 1440 1443 1444 1445 1443 1441 1441 1441 1440 1438 1437 1437 1438 1439 1439 1440 1442 1445 1446 1447 1448
1493 1486 1487 1486 1487 1496 1484 1486 1460 1460 1460 1458 1456 1453 1453 1457 1457 1458 1454 1452 1449 1455 1449 1446 1441 1438 1436 1438 1438 1439 1438 1440 1438 1436 1435 1434 1434 1433 1431 1430 1429 1429 1429 1431 1434 1437 1439 1442 1441
1483 1484 1484 1485 1489 1492 1489 1497 1472 1466 1467 1468 1466 1463 1463 1462 1467 1465 1461 1459 1453 1449 1456 1446 1442 1437 1437 1437 1435 1437 1436 1434 1433 1431 1430 1429 1428 1427 1425 1423 1422 1421 1420 1421 1423 1427 1429 1431 1434
1481 1484 1488 1492 1494 1506 1477 1483 1483 1479 1483 1473 1470 1469 1467 1466 1470 1469 1466 1462 1458 1457 1456 1448 1445 1438 1438 1435 1435 1434 1432 1431 1430 1427 1425 1423 1421 1420 1419 1417 1416 1415 1413 1413 1412 1414 1417 1420 1422
1481 1482 1489 1497 1500 1491 1473 1482 1483 1487 1486 1477 1479 1479 1477 1475 1468 1470 1468 1466 1464 1462 1451 1449 1441 1441 1436 1432 1434 1432 1431 1429 1427 1423 1421 1418 1415 1414 1414 1412 1410 1409 1409 1407 1405 1405 1405 1408 1411
1480 1480 1485 1486 1491 1488 1477 1485 1481 1488 1488 1482 1482 1482 1481 1479 1477 1471 1472 1474 1471 1466 1461 1452 1446 1442 1438 1435 1434 1431 1430 1428 1426 1420 1417 1416 1412 1410 1409 1405 1404 1403 1402 1400 1398 1396 1395 1398 1401
1478 1482 1476 1482 1486 1494 1480 1482 1487 1486 1487 1485 1482 1480 1477 1477 1478 1474 1469 1473 1471 1464 1457 1449 1448 1444 1435 1435 1433 1431 1428 1425 1421 1419 1416 1414 1410 1407 1403 1400 1397 1395 1394 1393 1391 1388 1386 1387 1391
1464 1468 1482 1486 1483 1480 1469 1468 1479 1482 1485 1485 1484 1483 1480 1476 1475 1474 1473 1471 1471 1464 1461 1452 1451 1442 1439 1436 1434 1430 1429 1425 1420 1416 1412 1408 1406 1403 1398 1394 1391 1391 1388 1385 1383 1380 1378 1378 1382
1466 1468 1469 1472 1480 1477 1470 1473 1471 1474 1479 1480 1482 1481 1481 1479 1473 1472 1472 1473 1470 1466 1461 1454 1448 1444 1441 1438 1434 1430 1424 1420 1417 1413 1408 1404 1400 1397 1392 1389 1387 1384 1380 1378 1376 1372 1371 1370 1372
1450 1449 1460 1476 1477 1468 1484 1473 1463 1469 1474 1477 1479 1481 1479 1479 1477 1475 1472 1473 1472 1469 1458 1454 1450 1447 1444 1439 1434 1428 1424 1421 1416 1412 1406 1401 1398 1393 1388 1386 1384 1378 1374 1371 1369 1366 1365 1363 1365